This demonstration page uses our WeatherBlox Daily Observations layout. Learn more.

40.92945, -100.16068

Hourly Observations for June 25, 2015

Temp ( °F °C ) Dew Point ( °F °C ) Humidity (%) Winds ( mph kmh ) Pressure ( in mb ) Visibility ( mi km ) Precip ( " mm )
12:15 am 00:15 Clear 69 20.8 67 19.3 91 91 NNE 5 7 29.91 1013 10 16.0934 N/A
12:35 am 00:35 Clear 68 20.1 66 18.9 93 93 NE 5 7 29.91 1013 10 16.0934 N/A
12:55 am 00:55 Clear 68 20 66 18.7 92 92 NNE 5 7 29.91 1013 10 16.0934 N/A
1:15 am 01:15 Clear 67 19.7 65 18.5 93 93 NNE 5 7 29.91 1013 10 16.0934 N/A
1:35 am 01:35 Clear 67 19.5 65 18.5 94 94 NNE 5 7 29.91 1013 10 16.0934 N/A
1:55 am 01:55 Clear 67 19.4 65 18.4 94 94 NNE 5 7 29.94 1014 7 11.26538 N/A
2:15 am 02:15 Clear 67 19.2 65 18.2 94 94 NE 5 7 29.94 1014 7 11.26538 N/A
2:35 am 02:35 Clear 66 19.1 65 18.1 94 94 NNE 3 6 29.94 1014 7 11.26538 N/A
2:55 am 02:55 Clear 66 18.8 64 17.9 95 95 Calm 29.94 1014 7 11.26538 N/A
3:15 am 03:15 Clear 65 18.3 63 17.3 94 94 Calm 29.94 1014 7 11.26538 N/A
3:35 am 03:35 Clear with Mist and Fog 64 17.8 62 16.9 95 95 Calm 29.97 1015 5 8.0467 N/A
3:55 am 03:55 Clear with Mist and Fog 63 17.3 62 16.5 95 95 NNW 3 6 29.97 1015 4 6.43736 N/A
4:15 am 04:15 Clear with Mist and Fog 64 17.5 62 16.8 96 96 N 6 9 29.97 1015 4 6.43736 N/A
4:35 am 04:35 Clear with Mist and Fog 65 18.1 64 17.5 96 96 NNE 7 11 29.94 1014 4 6.43736 N/A
4:55 am 04:55 Clear with Mist and Fog 65 18.3 64 17.6 96 96 NE 6 9 29.94 1014 4 6.43736 N/A
5:15 am 05:15 Clear with Mist and Fog 65 18.1 64 17.5 96 96 E 3 6 29.97 1015 4 6.43736 N/A
5:35 am 05:35 Clear with Mist and Fog 64 18 63 17.4 96 96 ENE 5 7 29.97 1015 2.5 4.02335 N/A
5:55 am 05:55 Clear with Mist and Fog 64 17.9 63 17.3 96 96 NE 7 11 29.97 1015 3 4.82802 N/A
6:15 am 06:15 Partly Cloudy with Mist and Fog 66 19 65 18.4 96 96 E 6 9 29.97 1015 2.5 4.02335 N/A
6:35 am 06:35 Mostly Cloudy with Mist and Fog 67 19.5 66 18.8 96 96 E 8 13 29.97 1015 2.5 4.02335 N/A
6:55 am 06:55 Cloudy with Mist and Fog 67 19.5 66 18.8 96 96 ENE 9 15 29.97 1015 2 3.21868 N/A
7:15 am 07:15 Cloudy with Mist and Fog 67 19.5 66 18.9 96 96 NNE 7 11 29.97 1015 2 3.21868 N/A
7:35 am 07:35 Partly Cloudy with Mist and Fog 67 19.6 66 19 96 96 ENE 9 15 29.97 1015 2.5 4.02335 N/A
7:55 am 07:55 Mostly Cloudy with Mist and Fog 68 19.8 66 19.1 96 96 E 7 11 29.97 1015 3 4.82802 N/A
8:15 am 08:15 Cloudy with Mist and Fog 68 20.1 67 19.4 96 96 ENE 12 19 29.97 1015 4 6.43736 N/A
8:35 am 08:35 Cloudy with Mist and Fog 68 20.2 67 19.5 96 96 ENE 6 9 30 1016 5 8.0467 N/A
8:55 am 08:55 Cloudy with Mist and Fog 69 20.5 67 19.5 94 94 ENE 7 11 29.97 1015 5 8.0467 N/A
9:15 am 09:15 Mostly Cloudy 70 21 68 19.8 93 93 NE 8 13 29.97 1015 7 11.26538 N/A
9:35 am 09:35 Partly Cloudy 71 21.8 68 20.1 90 90 NE 7 11 29.97 1015 7 11.26538 N/A
9:55 am 09:55 Partly Cloudy 72 22.3 67 19.6 85 85 NE 9 15 29.97 1015 10 16.0934 N/A
10:15 am 10:15 Sunny 74 23.1 67 19.6 81 81 NE 7 11 29.97 1015 10 16.0934 N/A
10:35 am 10:35 Sunny 74 23.2 66 19 77 77 NE 8 13 29.97 1015 10 16.0934 N/A
10:55 am 10:55 Sunny 75 24 66 18.8 73 73 NE 12 19 29.91 1013 10 16.0934 N/A
11:15 am 11:15 Sunny 74 23.6 65 18.2 72 72 ENE 9 15 29.91 1013 10 16.0934 N/A
11:35 am 11:35 Sunny 75 23.9 65 18.5 72 72 ENE 8 13 29.91 1013 10 16.0934 N/A
12:15 pm 12:15 Sunny 77 25.1 65 18.6 67 67 E 9 15 29.91 1013 10 16.0934 N/A
12:35 pm 12:35 Sunny 78 25.5 64 17.7 62 62 E 9 15 29.91 1013 10 16.0934 N/A
1:15 pm 13:15 Sunny 80 26.6 63 17 56 56 E 8 13 29.91 1013 10 16.0934 N/A
1:35 pm 13:35 Sunny 81 27 62 16.4 52 52 ESE 10 17 29.91 1013 10 16.0934 N/A
1:55 pm 13:55 Sunny 81 27.1 61 16.2 51 51 ENE 12 19 29.91 1013 10 16.0934 N/A
2:15 pm 14:15 Sunny 81 27.1 62 16.8 53 53 E 12 19 29.91 1013 10 16.0934 N/A
2:35 pm 14:35 Sunny 82 27.6 63 17.2 53 53 ENE 9 15 29.88 1012 10 16.0934 N/A
2:55 pm 14:55 Sunny 82 28 61 16 48 48 ENE 12 19 29.88 1012 10 16.0934 N/A
3:15 pm 15:15 Sunny 82 27.7 62 16.8 51 51 ENE 12 19 29.88 1012 10 16.0934 N/A
3:35 pm 15:35 Sunny 83 28.2 61 16.1 48 48 NE 14 22 29.85 1011 10 16.0934 N/A
3:55 pm 15:55 Sunny 82 27.6 62 16.8 52 52 ENE 12 19 29.85 1011 10 16.0934 N/A
4:15 pm 16:15 Sunny 83 28.5 63 17 50 50 E 12 19 29.88 1012 10 16.0934 N/A
4:35 pm 16:35 Sunny 84 28.8 63 17 49 49 E 14 22 29.88 1012 10 16.0934 N/A
4:55 pm 16:55 Sunny 84 28.7 62 16.9 49 49 E 13 20 29.88 1012 10 16.0934 N/A
5:15 pm 17:15 Sunny 83 28.5 63 17.2 50 50 E 12 19 29.88 1012 10 16.0934 N/A
5:35 pm 17:35 Sunny 81 27.3 63 17.4 55 55 NE 12 19 29.91 1013 10 16.0934 N/A
5:55 pm 17:55 Sunny with Nearby Thunderstorms 81 27 64 17.5 56 56 ENE 10 17 29.91 1013 10 16.0934 N/A
6:15 pm 18:15 Sunny 80 26.7 63 17 55 55 NE 8 13 29.91 1013 10 16.0934 N/A
6:35 pm 18:35 Sunny 80 26.5 62 16.5 54 54 NNE 15 24 29.91 1013 10 16.0934 N/A
6:55 pm 18:55 Sunny 79 25.9 62 16.8 57 57 NNE 16 26 29.91 1013 10 16.0934 N/A
7:15 pm 19:15 Sunny 77 25.2 60 15.6 55 55 ENE 14 22 29.88 1012 10 16.0934 N/A
7:35 pm 19:35 Sunny 77 24.9 60 15.8 57 57 E 15 24 29.85 1011 10 16.0934 N/A
7:55 pm 19:55 Sunny 77 24.8 62 16.5 60 60 E 15 24 29.85 1011 10 16.0934 N/A
8:15 pm 20:15 Sunny 76 24.2 62 16.7 63 63 E 13 20 29.88 1012 10 16.0934 N/A
8:35 pm 20:35 Sunny 75 24 61 16 61 61 E 12 19 29.88 1012 10 16.0934 N/A
8:55 pm 20:55 Sunny 74 23.2 61 16.2 65 65 ENE 7 11 29.94 1014 10 16.0934 N/A
9:15 pm 21:15 Clear 73 22.5 62 16.5 69 69 N 9 15 29.94 1014 10 16.0934 N/A
9:35 pm 21:35 Clear 72 22.4 62 16.5 69 69 N 10 17 29.97 1015 10 16.0934 N/A
9:55 pm 21:55 Clear 73 22.5 62 16.8 70 70 N 15 24 30 1016 10 16.0934 N/A
10:15 pm 22:15 Clear 72 22 64 17.5 76 76 N 10 17 30 1016 10 16.0934 N/A
10:35 pm 22:35 Clear 71 21.4 64 17.8 80 80 N 14 22 30 1016 10 16.0934 N/A
10:55 pm 22:55 Clear 69 20.5 64 17.6 84 84 N 9 15 30 1016 10 16.0934 N/A
11:15 pm 23:15 Clear 68 20 63 17.4 85 85 Calm 30 1016 10 16.0934 N/A
11:35 pm 23:35 Clear 67 19.6 64 17.5 88 88 S 10 17 29.97 1015 10 16.0934 N/A
11:55 pm 23:55 Clear 68 20 64 17.5 86 86 Calm 29.97 1015 10 16.0934 N/A

Powered by AerisWeather